When you browse on this site, cookies collect data to enhance your experience and personalize the content and advertising you see.
Visit our Privacy Policy to learn more. By continuing to use the site, you agree to this use of cookies and data.
  • In France
  • List of Countries
  • For 7 days
  • Water Temperature
  • Weather Map
  • Weather Widgets
  • user-avatar
    Login

    Hourly Weather Marsa Alam

    Today, 29 May, Friday

    Time Temperature Precipitation Wind Pressure Humidity
    00:00 +26°C° 0 mm 4 mps 714 mmHg 25%
    01:00 +26°C° 0 mm 4 mps 714 mmHg 24%
    02:00 +26°C° 0 mm 5 mps 714 mmHg 22%
    03:00 +25°C° 0 mm 5 mps 714 mmHg 23%
    04:00 +23°C° 0 mm 5 mps 714 mmHg 25%
    05:00 +23°C° 0 mm 5 mps 714 mmHg 27%
    06:00 +24°C° 0 mm 6 mps 715 mmHg 27%
    07:00 +26°C° 0 mm 7 mps 715 mmHg 26%
    08:00 +28°C° 0 mm 8 mps 716 mmHg 26%
    09:00 +29°C° 0 mm 8 mps 716 mmHg 24%
    10:00 +32°C° 0 mm 8 mps 716 mmHg 22%
    11:00 +33°C° 0 mm 9 mps 716 mmHg 20%
    12:00 +33°C° 0 mm 8 mps 716 mmHg 20%
    13:00 +33°C° 0 mm 8 mps 715 mmHg 21%
    14:00 +34°C° 0 mm 8 mps 715 mmHg 21%
    15:00 +33°C° 0 mm 8 mps 715 mmHg 21%
    16:00 +32°C° 0 mm 8 mps 714 mmHg 22%
    17:00 +31°C° 0 mm 8 mps 714 mmHg 22%
    18:00 +28°C° 0 mm 7 mps 714 mmHg 22%
    19:00 +27°C° 0 mm 6 mps 714 mmHg 23%
    20:00 +26°C° 0 mm 5 mps 714 mmHg 23%
    21:00 +25°C° 0 mm 4 mps 714 mmHg 23%
    22:00 +25°C° 0 mm 4 mps 715 mmHg 24%
    23:00 +25°C° 0 mm 4 mps 715 mmHg 24%

    Tomorrow, 30 May, Saturday

    Time Temperature Precipitation Wind Pressure Humidity
    00:00 +23°C° 0 mm 4 mps 714 mmHg 23%
    01:00 +23°C° 0 mm 4 mps 714 mmHg 22%
    02:00 +22°C° 0 mm 3 mps 714 mmHg 21%
    03:00 +21°C° 0 mm 3 mps 714 mmHg 22%
    04:00 +21°C° 0 mm 3 mps 714 mmHg 24%
    05:00 +20°C° 0 mm 3 mps 714 mmHg 25%
    06:00 +22°C° 0 mm 4 mps 714 mmHg 22%
    07:00 +25°C° 0 mm 5 mps 715 mmHg 20%
    08:00 +27°C° 0 mm 6 mps 715 mmHg 17%
    09:00 +28°C° 0 mm 6 mps 715 mmHg 16%
    10:00 +30°C° 0 mm 6 mps 715 mmHg 14%
    11:00 +32°C° 0 mm 6 mps 716 mmHg 13%
    12:00 +33°C° 0 mm 6 mps 715 mmHg 12%
    13:00 +34°C° 0 mm 6 mps 715 mmHg 11%
    14:00 +36°C° 0 mm 6 mps 714 mmHg 10%
    15:00 +35°C° 0 mm 6 mps 714 mmHg 12%
    16:00 +34°C° 0 mm 6 mps 714 mmHg 14%
    17:00 +33°C° 0 mm 5 mps 713 mmHg 16%
    18:00 +30°C° 0 mm 5 mps 713 mmHg 18%
    19:00 +29°C° 0 mm 4 mps 714 mmHg 20%
    20:00 +27°C° 0 mm 3 mps 714 mmHg 21%
    21:00 +26°C° 0 mm 3 mps 714 mmHg 21%
    22:00 +26°C° 0 mm 3 mps 714 mmHg 21%
    23:00 +25°C° 0 mm 3 mps 714 mmHg 20%

    Day after tomorrow, 31 May, Sunday

    Time Temperature Precipitation Wind Pressure Humidity
    00:00 +25°C° 0 mm 2 mps 714 mmHg 20%
    01:00 +24°C° 0 mm 2 mps 713 mmHg 20%
    02:00 +23°C° 0 mm 2 mps 713 mmHg 21%
    03:00 +23°C° 0 mm 2 mps 713 mmHg 21%
    04:00 +21°C° 0 mm 2 mps 713 mmHg 21%
    05:00 +21°C° 0 mm 2 mps 713 mmHg 21%
    06:00 +24°C° 0 mm 3 mps 713 mmHg 19%
    07:00 +26°C° 0 mm 3 mps 714 mmHg 16%
    08:00 +29°C° 0 mm 4 mps 714 mmHg 14%
    09:00 +32°C° 0 mm 4 mps 715 mmHg 11%
    10:00 +34°C° 0 mm 5 mps 715 mmHg 9%
    11:00 +36°C° 0 mm 5 mps 715 mmHg 7%
    12:00 +36°C° 0 mm 5 mps 714 mmHg 8%
    13:00 +36°C° 0 mm 5 mps 714 mmHg 9%
    14:00 +38°C° 0 mm 6 mps 713 mmHg 11%
    15:00 +36°C° 0 mm 5 mps 713 mmHg 13%
    16:00 +35°C° 0 mm 5 mps 712 mmHg 14%
    17:00 +34°C° 0 mm 4 mps 712 mmHg 16%
    18:00 +31°C° 0 mm 3 mps 712 mmHg 19%
    19:00 +29°C° 0 mm 3 mps 712 mmHg 22%
    20:00 +28°C° 0 mm 2 mps 713 mmHg 25%
    21:00 +27°C° 0 mm 2 mps 713 mmHg 24%
    22:00 +27°C° 0 mm 2 mps 713 mmHg 22%
    23:00 +27°C° 0 mm 2 mps 713 mmHg 21%

    1 June, Monday

    Time Temperature Precipitation Wind Pressure Humidity
    00:00 +26°C° 0 mm 2 mps 713 mmHg 21%
    01:00 +26°C° 0 mm 2 mps 712 mmHg 21%
    02:00 +25°C° 0 mm 2 mps 712 mmHg 22%
    03:00 +24°C° 0 mm 2 mps 712 mmHg 23%
    04:00 +23°C° 0 mm 1 mps 712 mmHg 24%
    05:00 +23°C° 0 mm 1 mps 712 mmHg 25%
    06:00 +25°C° 0 mm 1 mps 713 mmHg 20%
    07:00 +28°C° 0 mm 2 mps 713 mmHg 16%
    08:00 +31°C° 0 mm 3 mps 714 mmHg 12%
    09:00 +34°C° 0 mm 3 mps 714 mmHg 10%
    10:00 +36°C° 0 mm 4 mps 714 mmHg 8%
    11:00 +38°C° 0 mm 4 mps 714 mmHg 6%
    12:00 +39°C° 0 mm 5 mps 713 mmHg 7%
    13:00 +40°C° 0 mm 5 mps 713 mmHg 8%
    14:00 +40°C° 0 mm 5 mps 713 mmHg 8%
    15:00 +39°C° 0 mm 5 mps 712 mmHg 9%
    16:00 +39°C° 0 mm 5 mps 712 mmHg 10%
    17:00 +37°C° 0 mm 5 mps 711 mmHg 11%
    18:00 +35°C° 0 mm 5 mps 711 mmHg 13%
    19:00 +34°C° 0 mm 4 mps 712 mmHg 15%
    20:00 +31°C° 0 mm 3 mps 712 mmHg 17%
    21:00 +31°C° 0 mm 3 mps 712 mmHg 17%
    22:00 +30°C° 0 mm 3 mps 712 mmHg 18%
    23:00 +30°C° 0 mm 3 mps 712 mmHg 19%

    2 June, Tuesday

    Time Temperature Precipitation Wind Pressure Humidity
    00:00 +29°C° 0 mm 3 mps 711 mmHg 19%
    01:00 +29°C° 0 mm 3 mps 711 mmHg 20%
    02:00 +28°C° 0 mm 3 mps 711 mmHg 21%
    03:00 +28°C° 0 mm 3 mps 711 mmHg 22%
    04:00 +28°C° 0 mm 3 mps 711 mmHg 22%
    05:00 +27°C° 0 mm 3 mps 711 mmHg 23%
    06:00 +30°C° 0 mm 3 mps 711 mmHg 20%
    07:00 +33°C° 0 mm 3 mps 712 mmHg 17%
    08:00 +36°C° 0 mm 4 mps 713 mmHg 14%
    09:00 +37°C° 0 mm 4 mps 713 mmHg 13%
    10:00 +40°C° 0 mm 4 mps 713 mmHg 12%
    11:00 +41°C° 0 mm 4 mps 713 mmHg 11%
    12:00 +42°C° 0 mm 4 mps 712 mmHg 11%
    13:00 +42°C° 0 mm 4 mps 712 mmHg 10%
    14:00 +43°C° 0 mm 4 mps 712 mmHg 10%
    15:00 +42°C° 0 mm 3 mps 711 mmHg 10%
    16:00 +40°C° 0 mm 3 mps 711 mmHg 11%
    17:00 +39°C° 0 mm 3 mps 710 mmHg 12%
    18:00 +38°C° 0 mm 3 mps 710 mmHg 13%
    19:00 +36°C° 0 mm 2 mps 710 mmHg 14%
    20:00 +34°C° 0 mm 2 mps 710 mmHg 15%
    21:00 +34°C° 0 mm 2 mps 710 mmHg 15%
    22:00 +34°C° 0 mm 2 mps 711 mmHg 15%
    23:00 +32°C° 0 mm 2 mps 711 mmHg 16%

    3 June, Wednesday

    Time Temperature Precipitation Wind Pressure Humidity
    00:00 +33°C° 0 mm 3 mps 711 mmHg 16%
    01:00 +33°C° 0 mm 3 mps 710 mmHg 17%
    02:00 +32°C° 0 mm 4 mps 710 mmHg 17%
    03:00 +30°C° 0 mm 3 mps 710 mmHg 19%
    04:00 +29°C° 0 mm 3 mps 710 mmHg 21%
    05:00 +28°C° 0 mm 3 mps 711 mmHg 23%
    06:00 +30°C° 0 mm 3 mps 711 mmHg 21%
    07:00 +32°C° 0 mm 4 mps 712 mmHg 19%
    08:00 +34°C° 0 mm 4 mps 712 mmHg 17%
    09:00 +36°C° 0 mm 5 mps 712 mmHg 15%
    10:00 +37°C° 0 mm 5 mps 713 mmHg 13%
    11:00 +40°C° 0 mm 5 mps 713 mmHg 12%
    12:00 +40°C° 0 mm 5 mps 712 mmHg 11%
    13:00 +41°C° 0 mm 6 mps 712 mmHg 11%
    14:00 +41°C° 0 mm 6 mps 711 mmHg 11%
    15:00 +40°C° 0 mm 6 mps 711 mmHg 12%
    16:00 +39°C° 0 mm 6 mps 711 mmHg 14%
    17:00 +38°C° 0 mm 6 mps 710 mmHg 15%
    18:00 +35°C° 0 mm 4 mps 711 mmHg 17%
    19:00 +34°C° 0 mm 3 mps 711 mmHg 18%
    20:00 +31°C° 0 mm 2 mps 711 mmHg 20%
    21:00 +31°C° 0 mm 2 mps 711 mmHg 18%
    22:00 +31°C° 0 mm 3 mps 711 mmHg 16%
    23:00 +31°C° 0 mm 3 mps 711 mmHg 15%
    Show more